DW2468 Weather Reports


Display with metric or nautical units.
time (UTC)temp
F
wind
direction
speed
MPH
gust
MPH
rain 1hr
in
rain 24hr
in
rain mn
in
humidity
%
barometer
mb
20181216073158 43 60 9.0 17.0 0.00 0.00 0.00 76 1008.1
20181216071648 43 55 8.0 19.0 0.00 0.00 0.00 76 1008.6
20181216070220 44 44 5.0 13.0 0.00 0.00 0.00 74 1008.7
20181216064717 44 56 1.0 3.0 0.00 0.00 0.00 73 1008.5
20181216063123 44 48 3.0 6.0 0.00 0.00 0.00 73 1008.5
20181216061733 44 53 4.0 9.0 0.00 0.00 0.00 73 1008.9
20181216060205 44 51 7.0 12.0 0.00 0.00 0.00 74 1008.6
20181216054639 44 51 6.0 13.0 0.00 0.00 0.00 73 1008.7
20181216053135 44 51 2.0 12.0 0.00 0.00 0.00 73 1008.6
20181216051612 44 56 5.0 13.0 0.00 0.00 0.00 74 1008.6
20181216050144 44 39 5.0 13.0 0.00 0.00 0.00 75 1008.5
20181216044637 44 51 2.0 14.0 0.00 0.04 0.00 75 1008.8
20181216043055 43 59 5.0 14.0 0.00 0.04 0.00 75 1008.8
20181216041619 43 38 5.0 15.0 0.00 0.04 0.00 76 1008.8
20181216040215 43 57 2.0 12.0 0.00 0.04 0.00 76 1008.9
20181216034631 44 46 3.0 11.0 0.00 0.20 0.00 75 1008.9
20181216033113 44 51 0.0 7.0 0.00 0.20 0.00 75 1008.7
20181216030056 45 42 2.0 11.0 0.00 0.20 0.00 72 1009.2
20181216024702 45 59 1.0 14.0 0.00 0.20 0.00 71 1009.4
20181216023205 45 46 5.0 11.0 0.00 0.20 0.00 72 1009.7
20181216021600 45 62 0.0 10.0 0.00 0.20 0.00 72 1010.0
20181216020112 44 56 3.0 8.0 0.00 0.20 0.00 71 1010.2
20181216014542 44 59 1.0 10.0 0.00 0.20 0.00 74 1010.5
20181216013129 44 51 0.0 7.0 0.00 0.20 0.00 75 1011.0
20181216011618 43 43 1.0 9.0 0.00 0.20 0.00 77 1010.9
20181216010104 43 38 0.0 9.0 0.00 0.20 0.00 77 1011.4
20181216004553 43 40 5.0 10.0 0.00 0.20 0.00 78 1011.2
20181216003134 43 57 0.0 8.0 0.00 0.20 0.00 77 1011.5
20181216001556 43 55 5.0 9.0 0.00 0.20 0.00 78 1011.2
20181216000103 43 66 2.0 11.0 0.00 0.20 0.00 78 1011.0
20181215234552 43 57 1.0 9.0 0.00 0.20 0.00 79 1011.1
20181215233047 43 50 5.0 12.0 0.00 0.20 0.00 80 1011.2
20181215231609 43 59 5.0 13.0 0.00 0.20 0.00 79 1011.4
20181215230052 43 63 6.0 15.0 0.00 0.20 0.00 79 1011.5
20181215224534 43 49 5.0 15.0 0.00 0.20 0.00 80 1011.6
20181215223049 43 57 6.0 12.0 0.00 0.20 0.00 80 1011.6
20181215221548 44 49 4.0 13.0 0.00 0.20 0.00 79 1012.0
20181215220026 44 56 5.0 15.0 0.00 0.20 0.00 78 1011.7
20181215214527 44 59 5.0 15.0 0.00 0.20 0.00 77 1012.0
20181215213027 44 63 7.0 14.0 0.00 0.20 0.00 78 1012.0
20181215211604 44 59 5.0 11.0 0.00 0.20 0.00 80 1012.3
20181215210023 44 57 8.0 12.0 0.00 0.20 0.00 81 1012.6
20181215204541 44 56 4.0 10.0 0.00 0.20 0.00 81 1012.9
20181215203054 44 42 4.0 9.0 0.00 0.20 0.00 81 1013.3
20181215201555 44 57 4.0 8.0 0.00 0.20 0.00 81 1013.9
20181215200047 44 54 4.0 8.0 0.00 0.20 0.00 79 1014.2
20181215194537 44 51 4.0 10.0 0.00 0.20 0.00 79 1014.4
20181215193023 44 48 4.0 8.0 0.00 0.20 0.00 80 1014.4
20181215191523 44 48 4.0 7.0 0.00 0.20 0.00 80 1014.6
20181215190034 43 48 3.0 8.0 0.00 0.20 0.00 81 1014.6
20181215184547 42 46 3.0 8.0 0.00 0.20 0.00 84 1014.3
20181215183016 41 55 4.0 11.0 0.00 0.20 0.00 86 1014.4
20181215181536 41 56 2.0 10.0 0.00 0.20 0.00 87 1014.5
20181215180017 39 72 3.0 8.0 0.00 0.20 0.00 90 1014.8
20181215174510 38 196 1.0 3.0 0.00 0.20 0.00 93 1015.3
20181215173006 36 196 0.0 0.0 0.00 0.20 0.00 92 1015.6
20181215171508 36 196 0.0 0.0 0.00 0.20 0.00 91 1015.8
20181215170003 35 196 0.0 0.0 0.00 0.20 0.00 90 1015.8
20181215164644 35 196 0.0 0.0 0.00 0.20 0.00 90 1015.7
20181215163145 36 196 0.0 0.0 0.00 0.20 0.00 89 1015.4
20181215161644 36 196 0.0 0.0 0.00 0.20 0.00 88 1015.2
20181215160125 37 196 0.0 0.0 0.00 0.20 0.00 88 1014.5
20181215154615 38 196 0.0 0.0 0.00 0.20 0.00 87 1013.9
20181215153139 39 196 0.0 0.0 0.00 0.20 0.00 87 1013.7
20181215151626 39 196 0.0 0.0 0.00 0.20 0.00 87 1013.7
20181215150053 40 196 0.0 0.0 0.00 0.20 0.00 86 1013.7
20181215144650 41 196 0.0 0.0 0.00 0.20 0.00 85 1013.9
20181215143103 42 196 0.0 3.0 0.00 0.20 0.00 84 1014.0
20181215141633 42 196 2.0 5.0 0.00 0.20 0.00 84 1014.2
20181215140143 42 198 2.0 6.0 0.00 0.20 0.00 84 1014.3
20181215134604 42 198 2.0 5.0 0.00 0.20 0.00 83 1014.4
20181215133108 42 198 2.0 5.0 0.00 0.20 0.00 84 1014.4
20181215131616 42 200 0.0 3.0 0.00 0.20 0.00 84 1014.3
20181215130042 42 200 3.0 5.0 0.00 0.20 0.00 84 1014.3
20181215124629 41 202 0.0 0.0 0.00 0.20 0.00 83 1014.4
20181215123125 42 202 0.0 4.0 0.00 0.20 0.00 82 1014.2
20181215121608 42 202 2.0 4.0 0.00 0.20 0.00 82 1014.3
20181215120059 41 202 0.0 0.0 0.00 0.20 0.00 82 1013.8
20181215114543 42 202 0.0 4.0 0.00 0.20 0.00 82 1013.6
20181215113121 41 202 0.0 0.0 0.00 0.20 0.00 81 1013.6
20181215111553 40 202 0.0 0.0 0.00 0.20 0.00 81 1013.4
20181215110038 40 202 0.0 0.0 0.00 0.20 0.00 80 1013.2
20181215104537 41 202 0.0 0.0 0.00 0.20 0.00 79 1013.0
20181215103019 42 202 0.0 0.0 0.00 0.20 0.00 77 1012.5
20181215101510 43 198 1.0 9.0 0.00 0.20 0.00 76 1012.3
20181215100022 44 198 4.0 9.0 0.00 0.20 0.00 75 1012.2
20181215094511 43 211 3.0 10.0 0.00 0.20 0.00 75 1012.2
20181215093021 44 207 4.0 13.0 0.00 0.20 0.00 76 1011.9
20181215091502 44 207 1.0 9.0 0.00 0.20 0.00 76 1011.7
20181215090002 43 188 4.0 9.0 0.00 0.20 0.00 77 1011.4
20181215084654 43 206 5.0 12.0 0.00 0.20 0.00 77 1011.2
20181215083155 43 192 4.0 10.0 0.00 0.20 0.00 78 1010.9
20181215081721 43 211 5.0 12.0 0.00 0.20 0.00 77 1010.3
20181215080127 43 205 6.0 15.0 0.00 0.20 0.00 77 1010.0
20181215074600 43 207 8.0 15.0 0.00 0.20 0.20 77 1009.6